When you browse on this site, cookies collect data to enhance your experience and personalize the content and advertising you see.
Visit our Privacy Policy to learn more. By continuing to use the site, you agree to this use of cookies and data.
  • în România
  • Lista ţărilor
  • Pe 7 zile
  • Temperatura apei
  • Meteo pe hartă
  • Widget-uri
  • user-avatar
    Intrare

    Meteo pe oră la Linz

    Astăzi, 2 Iunie, Marţi

    Timp Temperatura Precipitaţii Vânt Presiune Umiditate
    00:00 +13°C° 0 mm 1 m/s 735 mmHg 90%
    01:00 +13°C° 0 mm 1 m/s 735 mmHg 90%
    02:00 +12°C° 0.1 mm 1 m/s 735 mmHg 91%
    03:00 +12°C° 0.1 mm 1 m/s 735 mmHg 92%
    04:00 +11°C° 0.1 mm 1 m/s 734 mmHg 93%
    05:00 +11°C° 0 mm 0 m/s 734 mmHg 89%
    06:00 +13°C° 0 mm 0 m/s 734 mmHg 85%
    07:00 +16°C° 0 mm 1 m/s 734 mmHg 80%
    08:00 +18°C° 0 mm 1 m/s 734 mmHg 72%
    09:00 +20°C° 0 mm 1 m/s 734 mmHg 65%
    10:00 +20°C° 0 mm 2 m/s 734 mmHg 58%
    11:00 +20°C° 0.5 mm 2 m/s 734 mmHg 59%
    12:00 +21°C° 0.5 mm 2 m/s 733 mmHg 60%
    13:00 +21°C° 0.5 mm 2 m/s 733 mmHg 61%
    14:00 +21°C° 1 mm 2 m/s 733 mmHg 65%
    15:00 +20°C° 1 mm 2 m/s 732 mmHg 68%
    16:00 +20°C° 1 mm 2 m/s 732 mmHg 72%
    17:00 +19°C° 0.7 mm 2 m/s 732 mmHg 75%
    18:00 +19°C° 0.7 mm 1 m/s 731 mmHg 78%
    19:00 +18°C° 0.7 mm 1 m/s 731 mmHg 82%
    20:00 +16°C° 0.3 mm 1 m/s 731 mmHg 84%
    21:00 +14°C° 0.3 mm 1 m/s 731 mmHg 86%
    22:00 +13°C° 0.3 mm 1 m/s 731 mmHg 88%
    23:00 +13°C° 0.2 mm 1 m/s 731 mmHg 89%

    Mâine, 3 Iunie, Miercuri

    Timp Temperatura Precipitaţii Vânt Presiune Umiditate
    00:00 +13°C° 0.2 mm 1 m/s 731 mmHg 89%
    01:00 +12°C° 0.2 mm 1 m/s 730 mmHg 90%
    02:00 +12°C° 0.1 mm 1 m/s 730 mmHg 90%
    03:00 +12°C° 0.1 mm 1 m/s 729 mmHg 90%
    04:00 +12°C° 0.1 mm 1 m/s 729 mmHg 90%
    05:00 +13°C° 0 mm 1 m/s 729 mmHg 88%
    06:00 +14°C° 0 mm 1 m/s 728 mmHg 86%
    07:00 +16°C° 0 mm 1 m/s 728 mmHg 83%
    08:00 +18°C° 0.1 mm 1 m/s 728 mmHg 76%
    09:00 +19°C° 0.1 mm 2 m/s 728 mmHg 69%
    10:00 +21°C° 0.1 mm 2 m/s 727 mmHg 62%
    11:00 +23°C° 0.2 mm 2 m/s 727 mmHg 59%
    12:00 +23°C° 0.2 mm 2 m/s 726 mmHg 56%
    13:00 +24°C° 0.2 mm 2 m/s 726 mmHg 52%
    14:00 +24°C° 0 mm 1 m/s 726 mmHg 53%
    15:00 +24°C° 0 mm 1 m/s 725 mmHg 54%
    16:00 +24°C° 0 mm 1 m/s 725 mmHg 54%
    17:00 +23°C° 0 mm 1 m/s 725 mmHg 62%
    18:00 +21°C° 0 mm 1 m/s 724 mmHg 70%
    19:00 +20°C° 0 mm 1 m/s 724 mmHg 77%
    20:00 +17°C° 0 mm 2 m/s 724 mmHg 81%
    21:00 +16°C° 0 mm 2 m/s 724 mmHg 84%
    22:00 +14°C° 0 mm 2 m/s 724 mmHg 88%
    23:00 +13°C° 0 mm 2 m/s 724 mmHg 87%

    Poimâine, 4 Iunie, Joi

    Timp Temperatura Precipitaţii Vânt Presiune Umiditate
    00:00 +13°C° 0 mm 1 m/s 723 mmHg 87%
    01:00 +12°C° 0 mm 1 m/s 723 mmHg 86%
    02:00 +12°C° 0 mm 1 m/s 722 mmHg 87%
    03:00 +12°C° 0 mm 1 m/s 722 mmHg 87%
    04:00 +11°C° 0 mm 1 m/s 722 mmHg 87%
    05:00 +13°C° 0 mm 1 m/s 722 mmHg 83%
    06:00 +14°C° 0 mm 1 m/s 722 mmHg 80%
    07:00 +16°C° 0 mm 1 m/s 721 mmHg 76%
    08:00 +18°C° 0 mm 1 m/s 721 mmHg 73%
    09:00 +19°C° 0 mm 2 m/s 721 mmHg 70%
    10:00 +20°C° 0 mm 2 m/s 721 mmHg 68%
    11:00 +21°C° 0 mm 2 m/s 721 mmHg 65%
    12:00 +23°C° 0 mm 1 m/s 720 mmHg 62%
    13:00 +24°C° 0 mm 1 m/s 720 mmHg 59%
    14:00 +24°C° 0.4 mm 1 m/s 719 mmHg 65%
    15:00 +23°C° 0.4 mm 1 m/s 719 mmHg 70%
    16:00 +23°C° 0.4 mm 1 m/s 718 mmHg 76%
    17:00 +21°C° 0.6 mm 2 m/s 718 mmHg 81%
    18:00 +19°C° 0.6 mm 2 m/s 718 mmHg 87%
    19:00 +18°C° 0.6 mm 2 m/s 717 mmHg 92%
    20:00 +17°C° 0.4 mm 3 m/s 718 mmHg 93%
    21:00 +16°C° 0.4 mm 3 m/s 718 mmHg 95%
    22:00 +15°C° 0.4 mm 4 m/s 718 mmHg 96%
    23:00 +14°C° 0.4 mm 4 m/s 718 mmHg 96%

    5 Iunie, Vineri

    Timp Temperatura Precipitaţii Vânt Presiune Umiditate
    00:00 +14°C° 0.4 mm 3 m/s 718 mmHg 96%
    01:00 +13°C° 0.4 mm 3 m/s 718 mmHg 97%
    02:00 +13°C° 0.5 mm 3 m/s 718 mmHg 97%
    03:00 +14°C° 0.5 mm 2 m/s 718 mmHg 97%
    04:00 +14°C° 0.5 mm 2 m/s 718 mmHg 97%
    05:00 +13°C° 1.3 mm 3 m/s 718 mmHg 97%
    06:00 +13°C° 1.3 mm 3 m/s 719 mmHg 96%
    07:00 +13°C° 1.3 mm 4 m/s 719 mmHg 96%
    08:00 +13°C° 0.7 mm 4 m/s 720 mmHg 96%
    09:00 +13°C° 0.7 mm 4 m/s 720 mmHg 95%
    10:00 +13°C° 0.7 mm 4 m/s 721 mmHg 95%
    11:00 +13°C° 0.5 mm 4 m/s 721 mmHg 93%
    12:00 +13°C° 0.5 mm 4 m/s 722 mmHg 91%
    13:00 +13°C° 0.5 mm 4 m/s 722 mmHg 89%
    14:00 +13°C° 0.2 mm 4 m/s 723 mmHg 85%
    15:00 +14°C° 0.2 mm 4 m/s 723 mmHg 81%
    16:00 +15°C° 0.2 mm 4 m/s 724 mmHg 77%
    17:00 +16°C° 0.1 mm 3 m/s 724 mmHg 79%
    18:00 +14°C° 0.1 mm 3 m/s 724 mmHg 80%
    19:00 +15°C° 0.1 mm 2 m/s 725 mmHg 81%
    20:00 +14°C° 0 mm 2 m/s 725 mmHg 83%
    21:00 +12°C° 0 mm 2 m/s 726 mmHg 86%
    22:00 +10°C° 0 mm 2 m/s 727 mmHg 88%
    23:00 +10°C° 0 mm 2 m/s 727 mmHg 87%

    6 Iunie, Sâmbătă

    Timp Temperatura Precipitaţii Vânt Presiune Umiditate
    00:00 +10°C° 0 mm 2 m/s 727 mmHg 87%
    01:00 +9°C° 0 mm 2 m/s 727 mmHg 87%
    02:00 +10°C° 0 mm 1 m/s 727 mmHg 87%
    03:00 +10°C° 0 mm 1 m/s 727 mmHg 87%
    04:00 +9°C° 0 mm 1 m/s 727 mmHg 87%
    05:00 +11°C° 0 mm 1 m/s 727 mmHg 82%
    06:00 +13°C° 0 mm 1 m/s 727 mmHg 78%
    07:00 +15°C° 0 mm 1 m/s 728 mmHg 74%
    08:00 +18°C° 0 mm 1 m/s 728 mmHg 68%
    09:00 +20°C° 0 mm 1 m/s 728 mmHg 62%
    10:00 +21°C° 0 mm 2 m/s 728 mmHg 56%
    11:00 +21°C° 0 mm 2 m/s 728 mmHg 55%
    12:00 +21°C° 0 mm 2 m/s 727 mmHg 55%
    13:00 +23°C° 0 mm 2 m/s 727 mmHg 55%
    14:00 +23°C° 0 mm 2 m/s 727 mmHg 55%
    15:00 +23°C° 0 mm 2 m/s 727 mmHg 55%
    16:00 +24°C° 0 mm 2 m/s 727 mmHg 55%
    17:00 +21°C° 0 mm 2 m/s 727 mmHg 62%
    18:00 +21°C° 0 mm 1 m/s 727 mmHg 69%
    19:00 +20°C° 0 mm 1 m/s 727 mmHg 76%
    20:00 +19°C° 0 mm 1 m/s 727 mmHg 79%
    21:00 +16°C° 0 mm 1 m/s 727 mmHg 82%
    22:00 +15°C° 0 mm 1 m/s 728 mmHg 86%
    23:00 +15°C° 0.1 mm 1 m/s 728 mmHg 87%

    7 Iunie, Duminică

    Timp Temperatura Precipitaţii Vânt Presiune Umiditate
    00:00 +14°C° 0.1 mm 1 m/s 728 mmHg 89%
    01:00 +14°C° 0.1 mm 1 m/s 728 mmHg 90%
    02:00 +14°C° 0 mm 1 m/s 727 mmHg 91%
    03:00 +13°C° 0 mm 1 m/s 727 mmHg 93%
    04:00 +13°C° 0 mm 1 m/s 727 mmHg 94%
    05:00 +14°C° 0 mm 1 m/s 727 mmHg 92%
    06:00 +14°C° 0 mm 0 m/s 727 mmHg 89%
    07:00 +15°C° 0 mm 0 m/s 727 mmHg 87%
    08:00 +18°C° 0 mm 1 m/s 727 mmHg 84%
    09:00 +19°C° 0 mm 1 m/s 727 mmHg 81%
    10:00 +20°C° 0 mm 1 m/s 727 mmHg 77%
    11:00 +21°C° 0.2 mm 1 m/s 727 mmHg 75%
    12:00 +22°C° 0.2 mm 1 m/s 727 mmHg 73%
    13:00 +23°C° 0.2 mm 1 m/s 726 mmHg 70%
    14:00 +23°C° 0.5 mm 1 m/s 726 mmHg 70%
    15:00 +23°C° 0.5 mm 1 m/s 726 mmHg 70%
    16:00 +24°C° 0.5 mm 1 m/s 726 mmHg 70%
    17:00 +21°C° 1.4 mm 3 m/s 726 mmHg 77%
    18:00 +19°C° 1.4 mm 4 m/s 726 mmHg 84%
    19:00 +16°C° 1.4 mm 6 m/s 727 mmHg 91%
    20:00 +14°C° 1.5 mm 5 m/s 727 mmHg 93%
    21:00 +13°C° 1.5 mm 5 m/s 728 mmHg 94%
    22:00 +12°C° 1.5 mm 5 m/s 729 mmHg 96%
    23:00 +12°C° 0.2 mm 4 m/s 729 mmHg 95%
    Arată mai mult